TimeMDT,TemperatureF,Dew PointF,Humidity,Sea Level PressureIn,VisibilityMPH,Wind Direction,Wind SpeedMPH,Gust SpeedMPH,PrecipitationIn,Events,Conditions,WindDirDegrees,DateUTC
12:34 AM,57.2,55.4,94,30.03,10.0,South,18.4,25.3,N/A,,Overcast,170,2013-09-17 06:34:00
12:53 AM,57.0,55.9,96,29.96,10.0,South,20.7,27.6,N/A,,Overcast,180,2013-09-17 06:53:00
1:53 AM,57.9,55.9,93,29.94,10.0,South,16.1,21.9,N/A,,Overcast,170,2013-09-17 07:53:00
2:53 AM,59.0,55.9,90,29.91,10.0,South,16.1,23.0,N/A,,Overcast,180,2013-09-17 08:53:00
3:53 AM,60.1,57.0,90,29.89,10.0,South,17.3,23.0,N/A,,Overcast,180,2013-09-17 09:53:00
4:53 AM,59.0,57.0,93,29.87,10.0,South,11.5,-,N/A,,Mostly Cloudy,190,2013-09-17 10:53:00
5:06 AM,57.2,55.4,94,29.94,10.0,South,10.4,-,N/A,,Scattered Clouds,190,2013-09-17 11:06:00
5:53 AM,57.0,55.9,96,29.88,8.0,South,6.9,-,N/A,,Clear,180,2013-09-17 11:53:00
6:53 AM,54.0,53.1,97,29.89,2.0,South,4.6,-,N/A,,Clear,180,2013-09-17 12:53:00
7:30 AM,55.4,55.4,100,29.95,3.0,South,3.5,-,N/A,,Clear,170,2013-09-17 13:30:00
7:53 AM,59.0,57.0,93,29.88,6.0,South,4.6,-,N/A,,Clear,190,2013-09-17 13:53:00
8:53 AM,64.0,57.0,78,29.86,10.0,SW,8.1,-,N/A,,Clear,230,2013-09-17 14:53:00
9:53 AM,73.0,55.0,53,29.83,10.0,WSW,6.9,-,N/A,,Clear,250,2013-09-17 15:53:00
10:53 AM,81.0,52.0,36,29.81,10.0,West,8.1,-,N/A,,Clear,260,2013-09-17 16:53:00
11:53 AM,84.0,50.0,31,29.78,10.0,SW,8.1,-,N/A,,Clear,220,2013-09-17 17:53:00
12:53 PM,86.0,46.9,26,29.75,10.0,WSW,4.6,-,N/A,,Clear,240,2013-09-17 18:53:00
1:53 PM,88.0,48.9,26,29.72,10.0,SW,10.4,-,N/A,,Clear,220,2013-09-17 19:53:00
2:53 PM,89.1,46.0,22,29.70,10.0,SW,10.4,-,N/A,,Clear,230,2013-09-17 20:53:00
3:53 PM,89.1,45.0,22,29.68,10.0,South,15.0,20.7,N/A,,Clear,190,2013-09-17 21:53:00
4:53 PM,87.1,46.0,24,29.68,10.0,SW,12.7,-,N/A,,Clear,230,2013-09-17 22:53:00
5:53 PM,82.0,50.0,33,29.67,10.0,SSW,6.9,-,N/A,,Clear,200,2013-09-17 23:53:00
6:53 PM,73.0,51.1,46,29.69,10.0,South,9.2,-,N/A,,Clear,190,2013-09-18 00:53:00
7:53 PM,70.0,51.1,51,29.70,10.0,South,9.2,-,N/A,,Clear,190,2013-09-18 01:53:00
8:53 PM,69.1,52.0,54,29.70,10.0,South,10.4,-,N/A,,Clear,170,2013-09-18 02:53:00
9:53 PM,69.1,54.0,58,29.68,10.0,South,12.7,-,N/A,,Clear,170,2013-09-18 03:53:00
10:53 PM,66.9,55.0,66,29.67,10.0,South,9.2,-,N/A,,Clear,180,2013-09-18 04:53:00
11:53 PM,62.1,55.0,78,29.66,10.0,SE,8.1,-,N/A,,Clear,140,2013-09-18 05:53:00